Location: Huesca
(42.1318°N, 0.4078°W)
Time: 21:10:02
(UTC+02:00)

Altair - Pass Details

Date: 24 July 2024
Orbit: 1502 x 1682 km, 47.2° (Epoch: 16 June)

Event Time Altitude Azimuth Distance (km) Brightness Sun altitude
Rises 17:30:04 0° 207° (SSW) 4,795 10.5 42.1°
Reaches altitude 10° 17:33:27 10° 200° (SSW) 3,786 10.0 41.5°
Maximum altitude 17:42:03 39° 136° (SE) 2,164 8.4 39.9°
Drops below altitude 10° 17:50:25 10° 71° (ENE) 3,684 9.1 38.4°
Sets 17:53:39 0° 64° (ENE) 4,654 9.6 37.8°
